�v������,,���ԉ��x,�����t���O,���Ԏ��x,�����t���O,�q�������x,�����t���O,���ʎ����x,�����t���O,�{�C���[���x,�����t���O,���։��x,�����t���O,30��,����,�����t���O
2004/1/1,0:00:00,23.1,0,40.4,0,21.6,0,19.3,0,66.5,0,21.4,0,2004/1/1 0:00,,0
2004/1/1,0:10:00,23.1,0,40.5,0,21.7,0,19.3,0,58.4,0,21.4,0,2004/1/1 0:30,,0
2004/1/1,0:20:00,22.9,0,40.3,0,21.7,0,19.2,0,51,0,21.4,0,2004/1/1 1:00,,0
2004/1/1,0:30:00,22.8,0,40,0,21.7,0,19.2,0,44.5,0,21.4,0,2004/1/1 1:30,,0
2004/1/1,0:40:00,22.5,0,39.9,0,21.7,0,19.1,0,38.9,0,21.4,0,2004/1/1 2:00,,0
2004/1/1,0:50:00,22.4,0,39.8,0,21.7,0,19.1,0,34.1,0,21.4,0,2004/1/1 2:30,,0
2004/1/1,1:00:00,22.2,0,39.9,0,21.7,0,19,0,30.2,0,21.4,0,2004/1/1 3:00,,0
2004/1/1,1:10:00,22,0,39.8,0,21.7,0,19,0,27.1,0,21.3,0,2004/1/1 3:30,,0
2004/1/1,1:20:00,21.8,0,39.7,0,21.7,0,18.9,0,24.4,0,21.3,0,2004/1/1 4:00,,0
2004/1/1,1:30:00,21.6,0,39.7,0,21.7,0,18.9,0,22.4,0,21.2,0,2004/1/1 4:30,,0
2004/1/1,1:40:00,21.5,0,39.7,0,21.7,0,18.8,0,20.5,0,21.1,0,2004/1/1 5:00,,0
2004/1/1,1:50:00,21.3,0,39.8,0,21.7,0,18.8,0,19.1,0,21.1,0,2004/1/1 5:30,,0
2004/1/1,2:00:00,21.2,0,40,0,21.7,0,18.7,0,17.9,0,21,0,2004/1/1 6:00,,0
2004/1/1,2:10:00,21,0,39.9,0,21.7,0,18.7,0,16.9,0,21,0,2004/1/1 6:30,,0
2004/1/1,2:20:00,20.9,0,39.8,0,21.7,0,18.6,0,16,0,20.9,0,2004/1/1 7:00,,0
2004/1/1,2:30:00,20.8,0,39.9,0,21.7,0,18.5,0,15.2,0,20.9,0,2004/1/1 7:30,,0
2004/1/1,2:40:00,20.7,0,40,0,21.6,0,18.5,0,14.7,0,20.8,0,2004/1/1 8:00,,0
2004/1/1,2:50:00,20.5,0,39.9,0,21.6,0,18.4,0,14.3,0,20.7,0,2004/1/1 8:30,,0
2004/1/1,3:00:00,20.4,0,39.9,0,21.6,0,18.4,0,13.9,0,20.7,0,2004/1/1 9:00,,0
2004/1/1,3:10:00,20.3,0,39.9,0,21.6,0,18.3,0,13.5,0,20.6,0,2004/1/1 9:30,,0
2004/1/1,3:20:00,20.2,0,40,0,21.5,0,18.3,0,13.2,0,20.6,0,2004/1/1 10:00,,0
2004/1/1,3:30:00,20.1,0,40.1,0,21.5,0,18.2,0,13,0,20.5,0,2004/1/1 10:30,,0
2004/1/1,3:40:00,20,0,40.1,0,21.4,0,18.2,0,12.7,0,20.5,0,2004/1/1 11:00,,0
2004/1/1,3:50:00,19.9,0,40,0,21.4,0,18.1,0,12.5,0,20.4,0,2004/1/1 11:30,,0
2004/1/1,4:00:00,19.8,0,40.2,0,21.4,0,18.1,0,12.3,0,20.3,0,2004/1/1 12:00,,0
2004/1/1,4:10:00,19.7,0,40.2,0,21.3,0,18,0,12.2,0,20.3,0,2004/1/1 12:30,,0
2004/1/1,4:20:00,19.7,0,40.1,0,21.3,0,18,0,12.1,0,20.2,0,2004/1/1 13:00,,0
2004/1/1,4:30:00,19.6,0,40.1,0,21.2,0,17.9,0,12,0,20.2,0,2004/1/1 13:30,,0
2004/1/1,4:40:00,19.5,0,40.2,0,21.2,0,17.9,0,11.8,0,20.1,0,2004/1/1 14:00,,0
2004/1/1,4:50:00,19.5,0,40.3,0,21.2,0,17.9,0,11.7,0,20.1,0,2004/1/1 14:30,,0
2004/1/1,5:00:00,19.4,0,40.3,0,21.1,0,17.8,0,11.6,0,20.1,0,2004/1/1 15:00,,0
2004/1/1,5:10:00,19.3,0,40.3,0,21.1,0,17.8,0,11.5,0,20.1,0,2004/1/1 15:30,,0
2004/1/1,5:20:00,19.3,0,40.3,0,21,0,17.7,0,11.4,0,20,0,2004/1/1 16:00,,0
2004/1/1,5:30:00,19.2,0,40.4,0,21,0,17.7,0,11.3,0,20,0,2004/1/1 16:30,,0
2004/1/1,5:40:00,19.2,0,40.4,0,20.9,0,17.6,0,11.3,0,19.9,0,2004/1/1 17:00,,0
2004/1/1,5:50:00,19.1,0,40.3,0,20.9,0,17.6,0,11.2,0,19.8,0,2004/1/1 17:30,,0
2004/1/1,6:00:00,19.1,0,40.4,0,20.9,0,17.6,0,11.1,0,19.8,0,2004/1/1 18:00,,0
2004/1/1,6:10:00,19,0,40.5,0,20.8,0,17.5,0,11,0,19.8,0,2004/1/1 18:30,,0
2004/1/1,6:20:00,19,0,40.5,0,20.8,0,17.5,0,11,0,19.8,0,2004/1/1 19:00,,0
2004/1/1,6:30:00,18.9,0,40.5,0,20.7,0,17.5,0,11,0,19.7,0,2004/1/1 19:30,,0
2004/1/1,6:40:00,18.9,0,40.5,0,20.7,0,17.4,0,10.9,0,19.6,0,2004/1/1 20:00,,0
2004/1/1,6:50:00,18.8,0,40.5,0,20.6,0,17.4,0,10.7,0,19.6,0,2004/1/1 20:30,,0
2004/1/1,7:00:00,18.8,0,40.5,0,20.6,0,17.3,0,10.7,0,19.6,0,2004/1/1 21:00,,0
2004/1/1,7:10:00,18.7,0,40.4,0,20.5,0,17.3,0,37.4,0,19.5,0,2004/1/1 21:30,,0
2004/1/1,7:20:00,18.9,0,40.3,0,20.5,0,17.3,0,64.3,0,19.5,0,2004/1/1 22:00,,0
2004/1/1,7:30:00,19.2,0,40,0,20.4,0,17.3,0,67.9,0,19.5,0,2004/1/1 22:30,,0
2004/1/1,7:40:00,19.5,0,39.8,0,20.4,0,17.4,0,68.3,0,19.7,0,2004/1/1 23:00,,0
2004/1/1,7:50:00,19.8,0,39.5,0,20.3,0,17.5,0,68.4,0,19.7,0,2004/1/1 23:30,,0
2004/1/1,8:00:00,20.1,0,39.2,0,20.3,0,17.6,0,68.6,0,19.8,0,2004/1/2 0:00,,0
2004/1/1,8:10:00,20.5,0,39.1,0,20.3,0,17.8,0,68.7,0,19.9,0,2004/1/2 0:30,,0
2004/1/1,8:20:00,20.8,0,38.9,0,20.3,0,17.9,0,68.8,0,20,0,2004/1/2 1:00,,0
2004/1/1,8:30:00,21,0,38.7,0,20.3,0,18,0,68.7,0,20.1,0,2004/1/2 1:30,,0
2004/1/1,8:40:00,21.2,0,38.6,0,20.4,0,18.1,0,68,0,20.2,0,2004/1/2 2:00,,0
2004/1/1,8:50:00,21.4,0,38.7,0,20.4,0,18.1,0,68.2,0,20.5,0,2004/1/2 2:30,,0
2004/1/1,9:00:00,21.5,0,38.5,0,20.4,0,18.2,0,68.9,0,20.6,0,2004/1/2 3:00,,0
2004/1/1,9:10:00,21.7,0,38.4,0,20.5,0,18.2,0,69.2,0,20.7,0,2004/1/2 3:30,,0
2004/1/1,9:20:00,21.8,0,38.3,0,20.5,0,18.2,0,69.5,0,20.7,0,2004/1/2 4:00,,0
2004/1/1,9:30:00,21.9,0,38,0,20.6,0,18.2,0,69.5,0,20.8,0,2004/1/2 4:30,,0
2004/1/1,9:40:00,22,0,37.7,0,20.6,0,18.2,0,69.6,0,20.9,0,2004/1/2 5:00,,0
2004/1/1,9:50:00,22.1,0,37.6,0,20.7,0,18.3,0,69.7,0,20.9,0,2004/1/2 5:30,,0
2004/1/1,10:00:00,22.1,0,37.7,0,20.7,0,18.4,0,69.5,0,20.9,0,2004/1/2 6:00,,0
2004/1/1,10:10:00,22.2,0,38,0,20.8,0,18.5,0,69.7,0,21,0,2004/1/2 6:30,,0
2004/1/1,10:20:00,22.4,0,38.6,0,20.9,0,18.5,0,69.4,0,21,0,2004/1/2 7:00,,0
2004/1/1,10:30:00,22.5,0,39.2,0,21,0,18.6,0,68.8,0,21.1,0,2004/1/2 7:30,,0
2004/1/1,10:40:00,22.5,0,39.6,0,21.1,0,18.7,0,68.3,0,21.2,0,2004/1/2 8:00,,0
2004/1/1,10:50:00,22.6,0,40.1,0,21.1,0,18.7,0,68.4,0,21.2,0,2004/1/2 8:30,,0
2004/1/1,11:00:00,22.7,0,40.9,0,21.2,0,18.8,0,68.6,0,21.3,0,2004/1/2 9:00,,0
2004/1/1,11:10:00,22.7,0,40.9,0,21.3,0,18.9,0,69.3,0,21.4,0,2004/1/2 9:30,,0
2004/1/1,11:20:00,22.8,0,41.1,0,21.4,0,19,0,69.6,0,21.6,0,2004/1/2 10:00,,0
2004/1/1,11:30:00,22.8,0,41.2,0,21.5,0,19,0,69.5,0,21.8,0,2004/1/2 10:30,,0
2004/1/1,11:40:00,22.8,0,41.5,0,21.6,0,19.1,0,69.3,0,21.9,0,2004/1/2 11:00,,0
2004/1/1,11:50:00,22.9,0,41.6,0,21.7,0,19.1,0,70.2,0,21.9,0,2004/1/2 11:30,,0
2004/1/1,12:00:00,22.9,0,41.8,0,21.7,0,19.1,0,71.2,0,22,0,2004/1/2 12:00,,0
2004/1/1,12:10:00,23,0,41.8,0,21.8,0,19.2,0,69.4,0,22.1,0,2004/1/2 12:30,,0
2004/1/1,12:20:00,23.1,0,42,0,21.9,0,19.4,0,71.6,0,22.1,0,2004/1/2 13:00,,0
2004/1/1,12:30:00,23.1,0,42.2,0,22,0,19.4,0,69.9,0,22.2,0,2004/1/2 13:30,,0
2004/1/1,12:40:00,23.2,0,42.3,0,22,0,19.5,0,68.7,0,22.2,0,2004/1/2 14:00,,0
2004/1/1,12:50:00,23.2,0,42.5,0,22.1,0,19.5,0,68.5,0,22.3,0,2004/1/2 14:30,,0
2004/1/1,13:00:00,23.2,0,42.5,0,22.2,0,19.6,0,68.7,0,22.4,0,2004/1/2 15:00,,0
2004/1/1,13:10:00,23.3,0,42.6,0,22.3,0,19.6,0,69.5,0,22.4,0,2004/1/2 15:30,,0
2004/1/1,13:20:00,23.4,0,42.6,0,22.4,0,19.6,0,69.3,0,22.4,0,2004/1/2 16:00,,0
2004/1/1,13:30:00,23.4,0,42.6,0,22.4,0,19.7,0,68.2,0,22.5,0,2004/1/2 16:30,,0
2004/1/1,13:40:00,23.4,0,42.7,0,22.5,0,19.7,0,69.1,0,22.5,0,2004/1/2 17:00,,0
2004/1/1,13:50:00,23.4,0,42.7,0,22.6,0,19.8,0,70.2,0,22.6,0,2004/1/2 17:30,,0
2004/1/1,14:00:00,23.4,0,42.6,0,22.6,0,19.8,0,70.3,0,22.6,0,2004/1/2 18:00,,0
2004/1/1,14:10:00,23.4,0,42.5,0,22.7,0,19.9,0,69.6,0,22.6,0,2004/1/2 18:30,,0
2004/1/1,14:20:00,23.4,0,42.3,0,22.7,0,19.9,0,68.1,0,22.7,0,2004/1/2 19:00,,0
2004/1/1,14:30:00,23.4,0,42.2,0,22.8,0,19.9,0,68.9,0,22.7,0,2004/1/2 19:30,,0
2004/1/1,14:40:00,23.4,0,42,0,22.8,0,19.9,0,69.6,0,22.7,0,2004/1/2 20:00,,0
2004/1/1,14:50:00,23.3,0,41.8,0,22.9,0,19.9,0,68.8,0,22.7,0,2004/1/2 20:30,,0
2004/1/1,15:00:00,23.3,0,41.6,0,22.9,0,19.9,0,68.4,0,22.7,0,2004/1/2 21:00,,0
2004/1/1,15:10:00,23.3,0,41.4,0,23,0,20,0,69.1,0,22.7,0,2004/1/2 21:30,,0
2004/1/1,15:20:00,23.3,0,41.3,0,23,0,19.9,0,61,0,22.7,0,2004/1/2 22:00,,0
2004/1/1,15:30:00,23.1,0,41.2,0,23,0,19.9,0,52.9,0,22.6,0,2004/1/2 22:30,,0
2004/1/1,15:40:00,22.9,0,41.1,0,23,0,19.8,0,45.8,0,22.6,0,2004/1/2 23:00,,0
2004/1/1,15:50:00,22.8,0,41.1,0,23,0,19.7,0,39.9,0,22.5,0,2004/1/2 23:30,,0
2004/1/1,16:00:00,22.6,0,40.9,0,23,0,19.7,0,35,0,22.4,0,2004/1/3 0:00,,0
2004/1/1,16:10:00,22.4,0,40.8,0,22.9,0,19.6,0,31.1,0,22.3,0,2004/1/3 0:30,,0
2004/1/1,16:20:00,22.2,0,41,0,22.8,0,19.6,0,27.9,0,22.2,0,2004/1/3 1:00,,0
2004/1/1,16:30:00,22.1,0,41.2,0,22.7,0,19.5,0,25.2,0,22.1,0,2004/1/3 1:30,,0
2004/1/1,16:40:00,21.9,0,41.4,0,22.6,0,19.4,0,23.2,0,22,0,2004/1/3 2:00,,0
2004/1/1,16:50:00,21.9,0,42,0,22.5,0,19.3,0,21.6,0,22,0,2004/1/3 2:30,,0
2004/1/1,17:00:00,21.9,0,42.8,0,22.4,0,19.3,0,29.9,0,21.9,0,2004/1/3 3:00,,0
2004/1/1,17:10:00,21.8,0,43.1,0,22.3,0,19.2,0,27.4,0,21.8,0,2004/1/3 3:30,,0
2004/1/1,17:20:00,21.7,0,43.4,0,22.3,0,19.1,0,24.3,0,21.7,0,2004/1/3 4:00,,0
2004/1/1,17:30:00,21.6,0,43.3,0,22.3,0,19.1,0,22.6,0,21.7,0,2004/1/3 4:30,,0
2004/1/1,17:40:00,21.5,0,43.2,0,22.3,0,19,0,20.9,0,21.6,0,2004/1/3 5:00,,0
2004/1/1,17:50:00,21.3,0,43.1,0,22.3,0,19,0,20.8,0,21.5,0,2004/1/3 5:30,,0
2004/1/1,18:00:00,21.2,0,43.6,0,22.2,0,19,0,42,0,21.5,0,2004/1/3 6:00,,0
2004/1/1,18:10:00,21.4,0,44.1,0,22.2,0,19,0,66.2,0,21.4,0,2004/1/3 6:30,,0
2004/1/1,18:20:00,21.7,0,43.9,0,22.1,0,19,0,68.6,0,21.5,0,2004/1/3 7:00,,0
2004/1/1,18:30:00,22,0,43.7,0,22,0,19.1,0,68.5,0,21.5,0,2004/1/3 7:30,,0
2004/1/1,18:40:00,22.2,0,43.9,0,22,0,19.4,0,70.9,0,21.6,0,2004/1/3 8:00,,0
2004/1/1,18:50:00,22.3,0,44.5,0,22,0,19.5,0,69.8,0,21.7,0,2004/1/3 8:30,,0
2004/1/1,19:00:00,22.4,0,45,0,22,0,19.5,0,68.5,0,21.8,0,2004/1/3 9:00,,0
2004/1/1,19:10:00,22.4,0,45,0,22.1,0,19.5,0,61.3,0,21.8,0,2004/1/3 9:30,,0
2004/1/1,19:20:00,22.3,0,44.7,0,22.1,0,19.4,0,54.4,0,21.7,0,2004/1/3 10:00,,0
2004/1/1,19:30:00,22.2,0,44.3,0,22.2,0,19.5,0,48.7,0,21.7,0,2004/1/3 10:30,,0
2004/1/1,19:40:00,22.1,0,44.1,0,22.3,0,20.1,0,43.4,0,21.7,0,2004/1/3 11:00,,0
2004/1/1,19:50:00,22.1,0,44,0,22.3,0,20.2,0,38.8,0,21.6,0,2004/1/3 11:30,,0
2004/1/1,20:00:00,22,0,44.2,0,22.4,0,20.2,0,49.9,0,21.6,0,2004/1/3 12:00,,0
2004/1/1,20:10:00,22.1,0,44.1,0,22.5,0,20.1,0,65.9,0,21.6,0,2004/1/3 12:30,,0
2004/1/1,20:20:00,22.3,0,43.6,0,22.6,0,20,0,68.7,0,21.7,0,2004/1/3 13:00,,0
2004/1/1,20:30:00,22.5,0,43.1,0,22.7,0,20,0,68.9,0,21.8,0,2004/1/3 13:30,,0
2004/1/1,20:40:00,22.6,0,42.8,0,22.7,0,20,0,69.4,0,21.9,0,2004/1/3 14:00,,0
2004/1/1,20:50:00,22.6,0,42.6,0,22.8,0,20,0,68,0,21.9,0,2004/1/3 14:30,,0
2004/1/1,21:00:00,22.6,0,42.7,0,22.9,0,20.1,0,70.4,0,22,0,2004/1/3 15:00,,0
2004/1/1,21:10:00,22.6,0,42.9,0,22.9,0,20,0,63.9,0,22,0,2004/1/3 15:30,,0
2004/1/1,21:20:00,22.4,0,42.9,0,23,0,19.9,0,54.7,0,21.9,0,2004/1/3 16:00,,0
2004/1/1,21:30:00,22.3,0,42.6,0,23.1,0,19.9,0,47.2,0,21.9,0,2004/1/3 16:30,,0
2004/1/1,21:40:00,22.2,0,42.3,0,23.1,0,19.8,0,41,0,21.8,0,2004/1/3 17:00,,0
2004/1/1,21:50:00,22.1,0,42.1,0,23.1,0,19.7,0,35.9,0,21.7,0,2004/1/3 17:30,,0
2004/1/1,22:00:00,22,0,42.1,0,23.1,0,19.7,0,44.6,0,21.7,0,2004/1/3 18:00,,0
2004/1/1,22:10:00,22.1,0,41.8,0,23.1,0,19.6,0,65.2,0,21.7,0,2004/1/3 18:30,,0
2004/1/1,22:20:00,22.3,0,41.5,0,23.1,0,19.7,0,68.5,0,21.7,0,2004/1/3 19:00,,0
2004/1/1,22:30:00,22.5,0,41,0,23.2,0,19.7,0,68.8,0,21.7,0,2004/1/3 19:30,,0
2004/1/1,22:40:00,22.6,0,40.6,0,23.2,0,19.7,0,68.4,0,21.8,0,2004/1/3 20:00,,0
2004/1/1,22:50:00,22.6,0,40.4,0,23.2,0,19.7,0,69.4,0,21.9,0,2004/1/3 20:30,,0
2004/1/1,23:00:00,22.6,0,40.1,0,23.2,0,19.7,0,66.4,0,21.9,0,2004/1/3 21:00,,0
2004/1/1,23:10:00,22.5,0,39.8,0,23.3,0,19.7,0,58.1,0,21.8,0,2004/1/3 21:30,,0
2004/1/1,23:20:00,22.4,0,39.4,0,23.3,0,19.6,0,50.8,0,21.9,0,2004/1/3 22:00,,0
2004/1/1,23:30:00,22.2,0,39.3,0,23.4,0,19.5,0,44.5,0,21.8,0,2004/1/3 22:30,,0
2004/1/1,23:40:00,22.1,0,38.9,0,23.4,0,19.5,0,39.2,0,21.7,0,2004/1/3 23:00,,0
2004/1/1,23:50:00,21.9,0,38.8,0,23.4,0,19.4,0,34.5,0,21.7,0,2004/1/3 23:30,,0
2004/1/2,0:00:00,21.7,0,38.7,0,23.4,0,19.3,0,30.6,0,21.6,0,2004/1/4 0:00,,0
2004/1/2,0:10:00,21.6,0,38.6,0,23.3,0,19.3,0,27.4,0,21.6,0,2004/1/4 0:30,,0
2004/1/2,0:20:00,21.5,0,38.7,0,23.3,0,19.2,0,24.5,0,21.5,0,2004/1/4 1:00,,0
2004/1/2,0:30:00,21.3,0,38.9,0,23.3,0,19.1,0,22.4,0,21.5,0,2004/1/4 1:30,,0
2004/1/2,0:40:00,21.2,0,39.1,0,23.2,0,19.1,0,20.5,0,21.4,0,2004/1/4 2:00,,0
2004/1/2,0:50:00,21.1,0,39.3,0,23.1,0,19,0,19,0,21.3,0,2004/1/4 2:30,,0
2004/1/2,1:00:00,21,0,39.4,0,23.1,0,18.9,0,17.9,0,21.3,0,2004/1/4 3:00,,0
2004/1/2,1:10:00,20.9,0,39.4,0,23,0,18.9,0,16.8,0,21.2,0,2004/1/4 3:30,,0
2004/1/2,1:20:00,20.7,0,39.6,0,23,0,18.8,0,16,0,21.2,0,2004/1/4 4:00,,0
2004/1/2,1:30:00,20.6,0,39.7,0,22.9,0,18.8,0,15.3,0,21.1,0,2004/1/4 4:30,,0
2004/1/2,1:40:00,20.5,0,39.7,0,22.8,0,18.7,0,14.9,0,21.1,0,2004/1/4 5:00,,0
2004/1/2,1:50:00,20.4,0,39.8,0,22.7,0,18.7,0,14.6,0,21,0,2004/1/4 5:30,,0
2004/1/2,2:00:00,20.4,0,39.9,0,22.7,0,18.6,0,14.3,0,21,0,2004/1/4 6:00,,0
2004/1/2,2:10:00,20.3,0,40,0,22.6,0,18.5,0,14.1,0,20.9,0,2004/1/4 6:30,,0
2004/1/2,2:20:00,20.2,0,40.2,0,22.5,0,18.5,0,13.9,0,20.9,0,2004/1/4 7:00,,0
2004/1/2,2:30:00,20.1,0,40.3,0,22.4,0,18.5,0,13.6,0,20.8,0,2004/1/4 7:30,,0
2004/1/2,2:40:00,20,0,40.3,0,22.3,0,18.4,0,13.3,0,20.8,0,2004/1/4 8:00,,0
2004/1/2,2:50:00,19.9,0,40.3,0,22.2,0,18.4,0,13.1,0,20.7,0,2004/1/4 8:30,,0
2004/1/2,3:00:00,19.9,0,40.4,0,22.2,0,18.3,0,13,0,20.7,0,2004/1/4 9:00,,0
2004/1/2,3:10:00,19.8,0,40.6,0,22.1,0,18.3,0,12.9,0,20.6,0,2004/1/4 9:30,,0
2004/1/2,3:20:00,19.8,0,40.7,0,22,0,18.2,0,12.8,0,20.6,0,2004/1/4 10:00,,0
2004/1/2,3:30:00,19.7,0,40.8,0,21.9,0,18.2,0,12.7,0,20.6,0,2004/1/4 10:30,,0
2004/1/2,3:40:00,19.7,0,40.9,0,21.9,0,18.2,0,12.6,0,20.5,0,2004/1/4 11:00,,0
2004/1/2,3:50:00,19.6,0,41,0,21.8,0,18.1,0,12.5,0,20.5,0,2004/1/4 11:30,,0
2004/1/2,4:00:00,19.6,0,41,0,21.7,0,18.1,0,12.3,0,20.4,0,2004/1/4 12:00,,0
2004/1/2,4:10:00,19.5,0,41,0,21.6,0,18,0,12.2,0,20.3,0,2004/1/4 12:30,,0
2004/1/2,4:20:00,19.5,0,41.1,0,21.6,0,18,0,12.1,0,20.3,0,2004/1/4 13:00,,0
2004/1/2,4:30:00,19.4,0,41.2,0,21.5,0,18,0,12,0,20.3,0,2004/1/4 13:30,,0
2004/1/2,4:40:00,19.4,0,41.2,0,21.4,0,17.9,0,11.9,0,20.3,0,2004/1/4 14:00,,0
2004/1/2,4:50:00,19.3,0,41.2,0,21.4,0,17.9,0,11.8,0,20.2,0,2004/1/4 14:30,,0
2004/1/2,5:00:00,19.3,0,41.3,0,21.3,0,17.9,0,11.7,0,20.1,0,2004/1/4 15:00,,0
2004/1/2,5:10:00,19.3,0,41.4,0,21.3,0,17.8,0,11.6,0,20.1,0,2004/1/4 15:30,,0
2004/1/2,5:20:00,19.2,0,41.6,0,21.2,0,17.8,0,11.5,0,20.1,0,2004/1/4 16:00,,0
2004/1/2,5:30:00,19.2,0,41.5,0,21.2,0,17.8,0,11.4,0,20.1,0,2004/1/4 16:30,,0
2004/1/2,5:40:00,19.1,0,41.5,0,21.1,0,17.7,0,11.3,0,20.1,0,2004/1/4 17:00,,0
2004/1/2,5:50:00,19.1,0,41.6,0,21,0,17.7,0,11.2,0,20,0,2004/1/4 17:30,,0
2004/1/2,6:00:00,19.1,0,41.6,0,21,0,17.7,0,11.2,0,20,0,2004/1/4 18:00,,0
2004/1/2,6:10:00,19,0,41.6,0,20.9,0,17.7,0,11.1,0,20,0,2004/1/4 18:30,,0
2004/1/2,6:20:00,19,0,41.7,0,20.9,0,17.6,0,11.1,0,19.9,0,2004/1/4 19:00,,0
2004/1/2,6:30:00,19,0,41.8,0,20.8,0,17.6,0,11,0,19.8,0,2004/1/4 19:30,,0
2004/1/2,6:40:00,18.9,0,41.9,0,20.8,0,17.6,0,10.9,0,19.8,0,2004/1/4 20:00,,0
2004/1/2,6:50:00,18.9,0,42,0,20.7,0,17.5,0,10.8,0,19.8,0,2004/1/4 20:30,,0
2004/1/2,7:00:00,18.9,0,42,0,20.7,0,17.5,0,10.7,0,19.7,0,2004/1/4 21:00,,0
2004/1/2,7:10:00,18.8,0,41.9,0,20.6,0,17.5,0,10.6,0,19.7,0,2004/1/4 21:30,,0
2004/1/2,7:20:00,18.8,0,42,0,20.6,0,17.4,0,10.5,0,19.7,0,2004/1/4 22:00,,0
2004/1/2,7:30:00,18.8,0,43.2,0,20.5,0,17.4,0,10.3,0,19.7,0,2004/1/4 22:30,,0
2004/1/2,7:40:00,18.8,0,43.1,0,20.5,0,17.4,0,10.3,0,19.7,0,2004/1/4 23:00,,0
2004/1/2,7:50:00,18.8,0,43.1,0,20.4,0,17.4,0,10.2,0,19.6,0,2004/1/4 23:30,,0
2004/1/2,8:00:00,18.9,0,43,0,20.4,0,17.3,0,10.1,0,19.6,0,2004/1/5 0:00,,0
2004/1/2,8:10:00,18.9,0,42.9,0,20.3,0,17.4,0,10,0,19.6,0,2004/1/5 0:30,,0
2004/1/2,8:20:00,19.1,0,43.6,0,20.3,0,17.4,0,9.9,0,19.6,0,2004/1/5 1:00,,0
2004/1/2,8:30:00,19.3,0,44.2,0,20.3,0,17.4,0,9.9,0,19.6,0,2004/1/5 1:30,,0
2004/1/2,8:40:00,19.5,0,45.5,0,20.2,0,17.3,0,9.9,0,19.5,0,2004/1/5 2:00,,0
2004/1/2,8:50:00,19.7,0,45.4,0,20.2,0,17.3,0,10,0,19.5,0,2004/1/5 2:30,,0
2004/1/2,9:00:00,19.9,0,44.9,0,20.2,0,17.4,0,10,0,19.6,0,2004/1/5 3:00,,0
2004/1/2,9:10:00,20.2,0,44.4,0,20.2,0,17.5,0,10.1,0,19.6,0,2004/1/5 3:30,,0
2004/1/2,9:20:00,20.5,0,44,0,20.2,0,17.5,0,10.2,0,19.7,0,2004/1/5 4:00,,0
2004/1/2,9:30:00,20.8,0,43.6,0,20.1,0,17.5,0,10.2,0,19.7,0,2004/1/5 4:30,,0
2004/1/2,9:40:00,20.9,0,43.6,0,20.1,0,17.6,0,10.3,0,19.8,0,2004/1/5 5:00,,0
2004/1/2,9:50:00,21,0,43.7,0,20.1,0,17.7,0,25.3,0,19.8,0,2004/1/5 5:30,,0
2004/1/2,10:00:00,20.9,0,44.1,0,20.1,0,17.8,0,31.2,0,19.8,0,2004/1/5 6:00,,0
2004/1/2,10:10:00,20.9,0,44.5,0,20.1,0,17.8,0,21.7,0,19.8,0,2004/1/5 6:30,,0
2004/1/2,10:20:00,20.9,0,44.8,0,20.1,0,17.8,0,17.2,0,19.8,0,2004/1/5 7:00,,0
2004/1/2,10:30:00,21,0,45.3,0,20.1,0,18.3,0,15.4,0,19.8,0,2004/1/5 7:30,,0
2004/1/2,10:40:00,21,0,45.5,0,20.1,0,18.4,0,15,0,19.9,0,2004/1/5 8:00,,0
2004/1/2,10:50:00,21,0,45.9,0,20.1,0,18.3,0,14.9,0,19.9,0,2004/1/5 8:30,,0
2004/1/2,11:00:00,20.9,0,46.2,0,20.1,0,18.2,0,15,0,19.9,0,2004/1/5 9:00,,0
2004/1/2,11:10:00,20.9,0,46.5,0,20.1,0,18.2,0,48.7,0,19.8,0,2004/1/5 9:30,,0
2004/1/2,11:20:00,21.1,0,46.4,0,20.1,0,18.2,0,66.5,0,19.8,0,2004/1/5 10:00,,0
2004/1/2,11:30:00,21.4,0,46.4,0,20.2,0,18.3,0,69,0,20,0,2004/1/5 10:30,,0
2004/1/2,11:40:00,21.6,0,46.4,0,20.2,0,18.3,0,69.4,0,20.1,0,2004/1/5 11:00,,0
2004/1/2,11:50:00,21.8,0,46.1,0,20.3,0,18.4,0,69.4,0,20.2,0,2004/1/5 11:30,,0
2004/1/2,12:00:00,21.9,0,46.1,0,20.4,0,18.5,0,69.4,0,20.4,0,2004/1/5 12:00,,0
2004/1/2,12:10:00,22.1,0,46,0,20.5,0,18.6,0,69.5,0,20.5,0,2004/1/5 12:30,,0
2004/1/2,12:20:00,22.1,0,46,0,20.6,0,18.6,0,69.6,0,20.6,0,2004/1/5 13:00,,0
2004/1/2,12:30:00,22.2,0,46.1,0,20.7,0,18.7,0,69.7,0,20.7,0,2004/1/5 13:30,,0
2004/1/2,12:40:00,22.3,0,46.3,0,20.8,0,18.8,0,69.7,0,20.7,0,2004/1/5 14:00,,0
2004/1/2,12:50:00,22.4,0,46.3,0,20.9,0,18.8,0,69.3,0,20.8,0,2004/1/5 14:30,,0
2004/1/2,13:00:00,22.4,0,46.4,0,20.9,0,18.9,0,69.1,0,20.9,0,2004/1/5 15:00,,0
2004/1/2,13:10:00,22.5,0,46.4,0,21.1,0,18.9,0,68.6,0,21,0,2004/1/5 15:30,,0
2004/1/2,13:20:00,22.6,0,46.5,0,21.2,0,19,0,68.4,0,21.1,0,2004/1/5 16:00,,0
2004/1/2,13:30:00,22.6,0,46.5,0,21.3,0,19,0,69,0,21.1,0,2004/1/5 16:30,,0
2004/1/2,13:40:00,22.6,0,46.5,0,21.3,0,19,0,69.5,0,21.2,0,2004/1/5 17:00,,0
2004/1/2,13:50:00,22.6,0,46.5,0,21.4,0,19.1,0,68.9,0,21.3,0,2004/1/5 17:30,,0
2004/1/2,14:00:00,22.7,0,46.5,0,21.5,0,19.1,0,68.1,0,21.3,0,2004/1/5 18:00,,0
2004/1/2,14:10:00,22.7,0,46.5,0,21.6,0,19.1,0,68.4,0,21.4,0,2004/1/5 18:30,,0
2004/1/2,14:20:00,22.7,0,46.3,0,21.7,0,19.2,0,69,0,21.4,0,2004/1/5 19:00,,0
2004/1/2,14:30:00,22.7,0,46.3,0,21.8,0,19.2,0,69.4,0,21.5,0,2004/1/5 19:30,,0
2004/1/2,14:40:00,22.7,0,46.2,0,21.9,0,19.3,0,69.4,0,21.6,0,2004/1/5 20:00,,0
2004/1/2,14:50:00,22.8,0,46.1,0,21.9,0,19.3,0,68.9,0,21.6,0,2004/1/5 20:30,,0
2004/1/2,15:00:00,22.8,0,46.1,0,22,0,19.3,0,68.1,0,21.7,0,2004/1/5 21:00,,0
2004/1/2,15:10:00,22.8,0,46,0,22.1,0,19.3,0,68.9,0,21.8,0,2004/1/5 21:30,,0
2004/1/2,15:20:00,22.8,0,45.9,0,22.2,0,19.3,0,69.6,0,21.8,0,2004/1/5 22:00,,0
2004/1/2,15:30:00,22.8,0,45.8,0,22.2,0,19.3,0,69.1,0,21.8,0,2004/1/5 22:30,,0
2004/1/2,15:40:00,22.8,0,45.8,0,22.3,0,19.4,0,68.1,0,21.8,0,2004/1/5 23:00,,0
2004/1/2,15:50:00,22.8,0,45.9,0,22.3,0,19.4,0,68.4,0,21.9,0,2004/1/5 23:30,,0
2004/1/2,16:00:00,22.8,0,45.9,0,22.4,0,19.4,0,69.5,0,21.9,0,2004/1/6 0:00,,0
2004/1/2,16:10:00,22.8,0,45.8,0,22.4,0,19.4,0,69.3,0,22,0,2004/1/6 0:30,,0
2004/1/2,16:20:00,22.9,0,45.7,0,22.5,0,19.5,0,68.6,0,22,0,2004/1/6 1:00,,0
2004/1/2,16:30:00,22.9,0,45.7,0,22.5,0,19.5,0,68,0,22,0,2004/1/6 1:30,,0
2004/1/2,16:40:00,22.9,0,45.5,0,22.6,0,19.5,0,68.8,0,22.1,0,2004/1/6 2:00,,0
2004/1/2,16:50:00,22.9,0,45.4,0,22.6,0,19.5,0,69.5,0,22.1,0,2004/1/6 2:30,,0
2004/1/2,17:00:00,22.9,0,45.2,0,22.6,0,19.6,0,69.2,0,22.1,0,2004/1/6 3:00,,0
2004/1/2,17:10:00,22.9,0,45.1,0,22.7,0,19.6,0,68.1,0,22.2,0,2004/1/6 3:30,,0
2004/1/2,17:20:00,22.9,0,45,0,22.7,0,19.6,0,68.6,0,22.2,0,2004/1/6 4:00,,0
2004/1/2,17:30:00,23,0,45.2,0,22.7,0,19.7,0,69.5,0,22.2,0,2004/1/6 4:30,,0
2004/1/2,17:40:00,23,0,46,0,22.8,0,19.7,0,70.4,0,22.2,0,2004/1/6 5:00,,0
2004/1/2,17:50:00,23,0,46.3,0,22.8,0,19.7,0,69.7,0,22.3,0,2004/1/6 5:30,,0
2004/1/2,18:00:00,23.1,0,46.4,0,22.8,0,19.7,0,71.4,0,22.3,0,2004/1/6 6:00,,0
2004/1/2,18:10:00,23.1,0,46.5,0,22.9,0,19.7,0,68.3,0,22.3,0,2004/1/6 6:30,,0
2004/1/2,18:20:00,23.2,0,46.5,0,22.9,0,19.7,0,68.9,0,22.2,0,2004/1/6 7:00,,0
2004/1/2,18:30:00,23.2,0,46.6,0,22.9,0,19.9,0,71.1,0,22.3,0,2004/1/6 7:30,,0
2004/1/2,18:40:00,23.2,0,46.6,0,22.9,0,19.9,0,70.4,0,22.4,0,2004/1/6 8:00,,0
2004/1/2,18:50:00,23,0,46.3,0,23,0,19.9,0,72.1,0,22.4,0,2004/1/6 8:30,,0
2004/1/2,19:00:00,22.9,0,46.3,0,23.1,0,19.9,0,68.7,0,22.3,0,2004/1/6 9:00,,0
2004/1/2,19:10:00,22.7,0,45.9,0,23.1,0,19.9,0,60.6,0,22.3,0,2004/1/6 9:30,,0
2004/1/2,19:20:00,22.6,0,45.6,0,23.2,0,19.8,0,54,0,22.3,0,2004/1/6 10:00,,0
2004/1/2,19:30:00,22.5,0,45.3,0,23.3,0,19.9,0,48.5,0,22.2,0,2004/1/6 10:30,,0
2004/1/2,19:40:00,22.4,0,45.1,0,23.3,0,19.9,0,43.2,0,22.1,0,2004/1/6 11:00,,0
2004/1/2,19:50:00,22.4,0,44.7,0,23.4,0,20.6,0,38.3,0,22.1,0,2004/1/6 11:30,,0
2004/1/2,20:00:00,22.3,0,44.6,0,23.4,0,20.5,0,50.5,0,22,0,2004/1/6 12:00,,0
2004/1/2,20:10:00,22.4,0,44.1,0,23.4,0,20.5,0,66.5,0,22,0,2004/1/6 12:30,,0
2004/1/2,20:20:00,22.6,0,43.7,0,23.5,0,20.4,0,69.2,0,22.1,0,2004/1/6 13:00,,0
2004/1/2,20:30:00,22.8,0,43.3,0,23.5,0,20.3,0,69.7,0,22.1,0,2004/1/6 13:30,,0
2004/1/2,20:40:00,22.9,0,43.1,0,23.5,0,20.3,0,69.2,0,22.2,0,2004/1/6 14:00,,0
2004/1/2,20:50:00,23,0,42.8,0,23.6,0,20.3,0,67.8,0,22.2,0,2004/1/6 14:30,,0
2004/1/2,21:00:00,23,0,42.7,0,23.6,0,20.3,0,69.5,0,22.1,0,2004/1/6 15:00,,0
2004/1/2,21:10:00,22.9,0,42.8,0,23.7,0,20.3,0,63.4,0,22.1,0,2004/1/6 15:30,,0
2004/1/2,21:20:00,22.8,0,42.9,0,23.7,0,20.3,0,53.9,0,22.1,0,2004/1/6 16:00,,0
2004/1/2,21:30:00,22.7,0,42.7,0,23.8,0,20.2,0,45.9,0,22.1,0,2004/1/6 16:30,,0
2004/1/2,21:40:00,22.5,0,42.7,0,23.8,0,20.1,0,39.7,0,22.1,0,2004/1/6 17:00,,0
2004/1/2,21:50:00,22.3,0,42.5,0,23.8,0,20,0,34.7,0,22,0,2004/1/6 17:30,,0
2004/1/2,22:00:00,22.2,0,42.3,0,23.8,0,19.9,0,44.5,0,22,0,2004/1/6 18:00,,0
2004/1/2,22:10:00,22.2,0,42,0,23.8,0,19.9,0,65.2,0,22,0,2004/1/6 18:30,,0
2004/1/2,22:20:00,22.4,0,41.6,0,23.8,0,19.9,0,68.7,0,22,0,2004/1/6 19:00,,0
2004/1/2,22:30:00,22.5,0,41.3,0,23.8,0,19.9,0,69.1,0,22.1,0,2004/1/6 19:30,,0
2004/1/2,22:40:00,22.6,0,41,0,23.8,0,19.8,0,69.5,0,22.1,0,2004/1/6 20:00,,0
2004/1/2,22:50:00,22.6,0,40.8,0,23.9,0,19.8,0,68.7,0,22.1,0,2004/1/6 20:30,,0
2004/1/2,23:00:00,22.6,0,40.6,0,23.9,0,19.8,0,67.9,0,22.1,0,2004/1/6 21:00,,0
2004/1/2,23:10:00,22.5,0,40.4,0,23.9,0,19.8,0,69.2,0,22.2,0,2004/1/6 21:30,,0
2004/1/2,23:20:00,22.6,0,40.3,0,24,0,19.9,0,69.5,0,22.2,0,2004/1/6 22:00,,0
2004/1/2,23:30:00,22.5,0,40.2,0,24,0,19.9,0,69.2,0,22.3,0,2004/1/6 22:30,,0
2004/1/2,23:40:00,22.6,0,39.9,0,24.1,0,19.8,0,68.3,0,22.2,0,2004/1/6 23:00,,0
2004/1/2,23:50:00,22.6,0,39.7,0,24.1,0,19.8,0,68.4,0,22.2,0,2004/1/6 23:30,,0
2004/1/3,0:00:00,22.6,0,39.4,0,24.2,0,19.8,0,68.9,0,22.2,0,2004/1/7 0:00,,0
2004/1/3,0:10:00,22.6,0,39.2,0,24.2,0,19.7,0,62.6,0,22.1,0,2004/1/7 0:30,,0
2004/1/3,0:20:00,22.5,0,39.2,0,24.2,0,19.7,0,53.3,0,22.1,0,2004/1/7 1:00,,0
2004/1/3,0:30:00,22.3,0,39.4,0,24.3,0,19.6,0,45.3,0,22.1,0,2004/1/7 1:30,,0
2004/1/3,0:40:00,22.2,0,39.5,0,24.3,0,19.5,0,39.1,0,22,0,2004/1/7 2:00,,0
2004/1/3,0:50:00,22,0,39.9,0,24.3,0,19.5,0,34.3,0,22,0,2004/1/7 2:30,,0
2004/1/3,1:00:00,21.9,0,40.1,0,24.3,0,19.4,0,30.4,0,21.9,0,2004/1/7 3:00,,0
2004/1/3,1:10:00,21.7,0,40.4,0,24.3,0,19.4,0,27.3,0,21.9,0,2004/1/7 3:30,,0
2004/1/3,1:20:00,21.6,0,40.7,0,24.2,0,19.3,0,24.7,0,21.8,0,2004/1/7 4:00,,0
2004/1/3,1:30:00,21.5,0,40.9,0,24.2,0,19.3,0,22.8,0,21.7,0,2004/1/7 4:30,,0
2004/1/3,1:40:00,21.4,0,40.9,0,24.2,0,19.2,0,21,0,21.7,0,2004/1/7 5:00,,0
2004/1/3,1:50:00,21.2,0,41.1,0,24.1,0,19.2,0,19.7,0,21.6,0,2004/1/7 5:30,,0
2004/1/3,2:00:00,21.1,0,41.3,0,24,0,19.1,0,18.7,0,21.6,0,2004/1/7 6:00,,0
2004/1/3,2:10:00,21,0,41.5,0,24,0,19,0,17.9,0,21.5,0,2004/1/7 6:30,,0
2004/1/3,2:20:00,20.9,0,41.7,0,23.9,0,19,0,17.3,0,21.4,0,2004/1/7 7:00,,0
2004/1/3,2:30:00,20.8,0,41.8,0,23.8,0,19,0,17,0,21.4,0,2004/1/7 7:30,,0
2004/1/3,2:40:00,20.7,0,41.8,0,23.7,0,18.9,0,16.6,0,21.3,0,2004/1/7 8:00,,0
2004/1/3,2:50:00,20.6,0,41.8,0,23.7,0,18.9,0,16.2,0,21.3,0,2004/1/7 8:30,,0
2004/1/3,3:00:00,20.5,0,42,0,23.6,0,18.8,0,15.9,0,21.2,0,2004/1/7 9:00,,0
2004/1/3,3:10:00,20.5,0,42.1,0,23.5,0,18.8,0,15.6,0,21.1,0,2004/1/7 9:30,,0
2004/1/3,3:20:00,20.4,0,42.1,0,23.4,0,18.7,0,15.4,0,21.1,0,2004/1/7 10:00,,0